{"data":{"norad_id":48229,"epoch":"2026-05-25T03:06:33.582240Z","epoch_age_seconds":63777,"freshness":"FRESH","line1":"1 48229U 21031V   26145.12955535 -.00000145  00000+0 -42695-3 0  9995","line2":"2 48229  87.8948 294.2930 0001811 101.3434 258.7899 13.14502214245357","mean_motion":13.14502214,"eccentricity":0.0001811,"inclination_deg":87.8948,"raan_deg":294.293,"arg_perigee_deg":101.3434,"mean_anomaly_deg":258.7899,"bstar":-0.00042695,"rev_number":24535,"period_min":109.54717190001,"perigee_km":1204.4191589153,"apogee_km":1207.1660582195,"semimajor_km":7583.9296085674,"source":"CELESTRAK","updated_at":"2026-05-25T13:38:22.437270Z"}}